Back to catalog

STARLINK-2029

AliveCommunicationsVLEO
NORAD 48320·PAYLOAD·🇺🇸 United States

Launched Apr 29, 2021 from Cape Canaveral Space Force Station

Loading…

Next Passes (next 24 hours)

TLE

FreshSource: CelesTrak SupGP

Epoch: Sep 14, 2026, 21:22 UTC

1 48320C 21036AW  26257.89076389  .00010179  00000+0  32730-3 0  2573
2 48320  53.1576 300.9513 0001247  94.8546 249.6405 15.31699249    17

Track STARLINK-2029 in real time with AllMySat

Download on the App Store